Regional Weather Roundup
Issued by NWS

Home | Current Version | Previous Version | Graphics & Text | Print | Product List | Glossary On
Versions: 1 2 3 4 5 6 7 8 9 10 11 12 13 14 15 16 17 18 19 20 21 22 23 24 25 26 27 28 29 30 31 32 33 34 35 36 37 38 39 40 41 42 43 44 45 46 47 48 49 50
000
ASUS43 KBIS 010110
RWRND

NORTH DAKOTA REGIONAL WEATHER ROUNDUP
NATIONAL WEATHER SERVICE BISMARCK ND
800 PM CDT SUN APR 30 2017

NOTE: "FAIR" INDICATES FEW OR NO CLOUDS BELOW 12,000 FEET WITH NO
SIGNIFICANT WEATHER AND/OR OBSTRUCTIONS TO VISIBILITY.


NDZ001>003-009>011-017-010200-
NORTHWEST NORTH DAKOTA

CITY           SKY/WX    TMP DP  RH WIND       PRES   REMARKS
WILLISTON      CLOUDY    63  31  30 SW8       29.79F
MINOT          FAIR      64  20  18 S6        29.83F
MINOT AFB      CLEAR     63  22  20 S9        29.82F
$$

NDZ018>021-031>035-040>046-010200-
SOUTHWEST NORTH DAKOTA

CITY           SKY/WX    TMP DP  RH WIND       PRES   REMARKS
BISMARCK       FAIR      61  28  28 E9        29.86S
DICKINSON      FAIR      59  19  21 W7        29.82S
GARRISON         N/A     62  14  15 CALM      29.83F
HETTINGER ARPT CLEAR     60  20  21 CALM      29.86S
$$

NDZ004>008-012>016-024-026-027-054-010200-
NORTHEAST NORTH DAKOTA

CITY           SKY/WX    TMP DP  RH WIND       PRES   REMARKS
GRAND FORKS    MOCLDY    58  31  35 E7        29.88F
GRND FRKS AFB  PTCLDY    56  26  31 E7        29.89F
DEVILS LAKE    FAIR      57  28  33 E10       29.90S
$$

NDZ022-023-025-028>030-036>039-047>053-010200-
SOUTHEAST NORTH DAKOTA

CITY           SKY/WX    TMP DP  RH WIND       PRES   REMARKS
FARGO          PTCLDY    57  20  23 E9        29.85S
JAMESTOWN      FAIR      55  26  32 NE8       29.86S
$$




USA.gov is the U.S. government's official web portal to all federal, state and local government web resources and services.